Powrót do katalogu

STARLINK-32195

AktywnyŁącznośćVLEO
NORAD 60440·PAYLOAD·🇺🇸 United States

Wystrzelony Aug 12, 2024 z Cape Canaveral Space Force Station

Loading…

Następne Przeloty (najbliższe 24 godziny)

TLE

ŚwieżeSource: CelesTrak SupGP

Epoka: Sep 15, 2026, 02:09 UTC

1 60440C 24144R   26258.09006944 -.00026339  00000+0 -77798-3 0  2587
2 60440  53.1582  52.9784 0001254  79.6487 126.4590 15.34412192    18

Śledź STARLINK-32195 w czasie rzeczywistym z AllMySat

Download on the App Store